GFSFLT2_sfc_30mbdewp_234.txt.gz
Dewpoint
66 69 70 70 70 70 69 69 70 70 70 70 70 69 69 70 70 70 70 69 68 68 67 66 64 62 61 60 60 60 61 61
65 67 70 70 70 69 69 69 69 69 69 69 69 69 69 69 70 70 70 69 67 68 67 66 64 62 61 59 59 59 58 60
64 64 66 68 68 68 68 69 69 69 69 69 68 66 68 69 67 69 69 68 67 67 67 66 64 63 62 61 60 58 58 59
64 64 64 65 62 67 68 68 68 68 68 69 66 63 64 65 64 67 68 67 67 66 66 66 65 63 62 61 60 59 58 60
64 65 65 64 59 66 65 65 66 66 66 68 65 61 62 61 66 66 67 67 66 66 66 65 63 63 62 60 59 59 57 57
63 65 65 65 62 63 62 63 63 64 65 66 64 64 62 60 65 65 63 64 64 64 64 64 63 63 63 63 61 60 60 60
62 63 65 65 64 63 60 60 61 62 63 66 64 63 64 61 60 63 62 60 62 63 62 63 63 62 62 62 61 62 60 58
62 62 65 65 65 63 61 60 60 61 61 63 65 63 63 63 61 61 61 60 60 59 60 60 62 61 61 62 61 61 60 58
61 63 65 66 65 66 63 62 61 60 61 62 64 64 63 62 62 61 60 60 61 59 59 60 60 60 61 61 60 61 61 61
61 61 65 66 65 65 63 63 62 60 61 62 64 63 63 63 61 61 61 61 60 61 60 60 60 60 60 60 60 61 61 61
61 61 63 66 66 65 65 63 64 63 61 61 64 64 62 62 59 60 60 60 60 60 60 60 59 59 58 59 59 58 59 59
59 61 62 66 66 66 65 64 64 63 63 62 63 64 63 62 61 59 61 58 59 59 59 60 59 58 57 54 58 58 58 57
57 60 61 64 65 65 64 63 63 63 63 63 62 63 64 63 61 61 61 59 58 59 60 59 59 58 57 56 56 58 57 57
55 59 61 63 64 64 64 64 63 63 63 63 63 63 64 64 62 61 60 59 59 59 58 59 59 60 56 56 54 54 55 57
53 58 61 61 63 64 64 63 64 63 63 63 63 63 64 64 64 63 61 59 59 59 60 59 57 58 59 55 54 52 54 57
52 55 60 61 62 62 62 61 60 61 62 62 62 63 63 64 65 64 63 61 59 59 61 61 59 58 59 59 57 58 56 54
54 56 59 61 62 61 62 61 61 61 61 61 63 63 63 64 65 65 64 63 62 60 60 61 61 59 58 59 58 58 58 58
44 47 53 61 63 63 62 62 61 61 61 61 62 63 64 64 65 65 66 65 64 63 62 62 61 61 60 59 59 58 58 59
42 45 42 48 60 65 64 63 63 62 62 63 62 63 64 64 65 65 66 66 65 64 64 63 63 62 62 61 60 60 61 61
30 43 45 47 49 51 64 66 64 64 64 63 63 63 64 65 66 66 66 66 66 66 65 65 63 65 63 63 63 62 62 62

GFSFLT2_sfc_30mbdewp_240.txt.gz
Dewpoint
68 70 70 70 70 70 69 69 69 69 70 70 70 70 70 70 70 70 69 69 67 66 65 64 63 62 61 60 60 60 60 60
67 68 70 70 70 69 69 69 69 69 69 69 69 69 70 70 70 70 69 68 66 66 65 63 62 61 60 60 60 60 58 60
67 67 68 69 69 69 69 69 69 69 69 68 68 69 69 70 70 69 69 67 66 66 65 64 62 62 61 61 62 60 58 59
67 67 68 68 68 69 68 69 69 69 68 68 67 68 68 69 69 69 68 66 66 66 65 65 64 63 61 61 60 60 58 61
67 67 68 68 67 68 68 68 68 68 68 67 66 66 67 68 68 69 68 67 66 66 66 65 64 63 62 62 62 60 58 61
66 67 68 67 67 67 67 67 67 67 67 67 65 65 65 65 66 67 67 67 65 65 65 65 64 63 63 62 63 62 60 62
64 66 67 66 66 66 66 66 67 66 67 66 65 63 63 64 64 66 66 66 65 64 64 64 63 63 62 63 63 63 62 61
62 63 65 64 65 65 65 65 65 65 66 66 65 63 63 61 63 64 65 65 65 64 63 63 63 63 62 62 62 62 62 61
61 62 63 62 63 63 63 63 64 64 64 65 66 63 63 61 63 63 63 63 63 63 63 63 62 63 62 62 61 61 61 60
62 62 62 61 63 62 61 62 63 63 63 64 66 64 63 63 61 63 63 62 62 61 61 62 62 61 62 61 61 61 60 60
63 62 62 62 61 63 60 60 62 61 63 63 64 65 64 63 62 61 63 62 61 60 59 58 59 60 60 61 61 61 60 60
63 63 63 63 62 64 62 60 61 61 61 62 63 64 64 63 63 63 62 62 61 61 59 59 57 57 58 59 60 60 60 60
62 63 64 63 62 62 64 61 61 61 60 61 62 63 64 63 63 63 62 61 61 60 60 59 59 59 57 58 58 58 58 59
61 62 63 64 63 62 63 64 62 62 61 60 62 63 63 63 61 62 61 61 60 60 60 59 59 60 57 56 55 55 56 57
60 61 63 64 63 63 62 63 64 63 63 62 61 63 63 63 61 61 61 60 60 59 59 59 58 59 59 56 54 53 53 54
60 60 62 64 64 63 62 60 61 63 63 63 63 62 64 63 62 61 60 61 60 59 59 58 58 57 59 58 56 54 51 49
59 60 61 63 64 64 63 61 60 60 63 63 63 64 63 63 64 62 61 61 60 59 59 59 58 57 57 58 58 57 57 54
57 59 60 62 63 63 63 62 61 61 62 62 63 63 64 64 63 63 63 61 61 60 59 59 59 59 57 57 57 56 56 56
56 58 59 61 63 63 63 63 62 62 62 62 62 62 63 64 64 64 63 63 62 61 61 59 59 59 59 58 58 57 56 56
54 57 58 60 62 63 63 63 63 62 62 62 62 62 63 63 64 64 64 64 63 63 62 61 60 60 59 59 58 58 59 58

GFSFLT2_sfc_30mbdewp_243.txt.gz
Dewpoint
69 69 70 70 70 69 69 69 69 69 70 70 70 70 69 70 70 69 69 68 66 65 64 63 62 62 61 60 60 60 60 62
68 69 69 69 69 69 68 68 69 69 69 70 69 69 69 69 69 69 68 67 66 64 63 63 62 61 60 60 60 60 60 59
67 68 68 69 69 68 68 68 68 68 69 69 69 69 69 69 69 69 68 66 65 64 64 63 62 61 61 62 62 61 59 59
65 66 66 67 68 68 68 68 68 68 68 68 68 68 69 69 69 69 68 66 65 65 65 64 63 62 61 62 60 60 58 58
64 65 66 66 67 68 68 68 68 68 67 67 66 67 68 68 68 68 67 66 65 65 65 64 64 63 62 61 62 62 60 60
64 65 65 66 67 66 67 67 67 66 67 66 65 66 66 66 67 67 67 66 64 65 65 64 64 63 63 62 62 62 62 61
64 65 65 66 67 66 66 66 66 66 66 66 65 64 65 65 65 66 66 66 65 63 64 64 63 63 62 62 62 62 63 62
65 65 65 66 66 66 66 66 66 66 66 66 65 63 63 64 64 65 65 65 65 63 63 63 62 62 61 61 61 61 62 62
63 65 66 66 65 65 65 65 65 65 65 65 65 63 63 61 63 63 64 65 64 64 63 62 62 62 62 62 62 61 61 61
60 62 64 64 64 64 64 64 64 64 64 65 65 63 63 62 62 63 63 63 63 63 62 62 62 61 61 61 62 61 61 60
59 60 62 63 63 63 63 63 63 63 63 64 65 65 63 62 61 62 63 63 62 62 61 60 59 60 61 61 61 61 61 61
61 59 60 61 61 62 61 60 62 62 62 62 63 64 64 62 62 61 63 63 62 61 60 60 58 57 58 59 60 60 60 60
61 61 60 60 59 60 60 59 59 60 61 61 62 63 64 64 62 63 62 61 61 61 60 59 58 58 57 57 57 59 59 59
62 62 61 60 58 58 60 59 60 60 60 60 61 62 63 63 63 62 62 62 61 61 60 59 59 59 56 56 55 55 57 58
61 62 62 62 59 58 60 62 62 61 61 60 61 61 62 63 62 62 62 62 61 61 60 59 58 59 59 56 54 54 54 53
60 61 62 63 61 59 59 61 60 60 61 61 60 61 62 63 62 62 61 62 61 61 61 60 60 58 59 59 58 54 51 48
58 60 61 62 62 61 59 59 60 60 61 62 61 61 61 62 62 62 61 61 61 60 60 59 59 59 58 58 59 58 56 54
55 58 60 62 63 62 61 59 58 59 62 62 62 62 62 62 63 62 61 61 60 60 60 60 59 59 58 58 57 56 56 56
52 56 59 61 63 62 62 60 59 58 60 62 62 63 63 62 63 63 62 62 61 61 61 60 59 59 58 58 58 57 56 56
51 55 58 60 62 63 62 62 60 60 60 61 62 62 63 63 63 63 63 63 63 62 61 61 60 59 59 59 58 58 58 57

GFSFLT2_sfc_30mbdewp_246.txt.gz
Dewpoint
68 69 70 69 69 68 68 69 69 70 70 70 70 69 69 70 70 69 68 68 66 64 64 63 63 62 61 60 60 60 61 63
67 69 69 69 69 68 68 68 69 69 69 69 69 68 69 69 69 69 67 66 65 64 63 62 62 61 60 60 60 61 60 60
67 68 68 68 68 68 68 68 68 69 69 69 68 69 69 69 69 68 67 66 65 64 63 62 62 61 61 62 62 60 59 58
66 67 68 68 68 68 68 68 68 68 69 69 68 68 68 69 68 68 67 65 65 64 64 63 62 61 61 61 60 60 59 58
67 67 67 66 67 67 67 68 67 67 67 67 67 67 68 68 68 68 67 66 64 64 65 64 63 62 62 61 61 62 61 61
65 65 65 65 67 67 66 66 66 66 67 66 66 66 66 66 66 66 66 66 63 64 64 63 63 63 63 62 62 62 62 63
64 64 64 64 66 66 65 65 65 65 65 66 65 65 65 65 65 65 65 65 63 63 63 63 63 62 62 62 62 61 62 62
63 64 64 64 65 65 65 65 65 65 65 65 65 64 64 64 64 65 65 65 64 63 62 62 62 62 61 61 61 61 61 61
63 64 64 64 64 65 65 65 65 64 64 65 65 63 63 63 63 64 64 64 64 64 62 62 61 61 61 61 61 61 61 61
62 63 63 64 64 65 65 65 65 64 65 65 65 63 62 62 62 62 63 64 64 63 62 61 61 60 60 60 60 61 61 61
59 63 63 63 64 65 64 64 64 64 64 64 64 64 63 62 61 62 62 62 63 62 62 61 59 59 60 60 60 60 60 61
58 60 62 64 64 64 64 63 64 63 63 63 64 64 63 62 61 61 62 62 62 61 61 60 60 59 58 58 59 59 60 60
59 58 60 62 62 62 62 61 62 62 62 62 63 63 64 62 61 61 62 62 62 61 61 60 59 58 57 57 57 58 58 59
60 59 59 60 59 60 59 59 60 61 61 61 62 62 63 63 61 61 61 61 61 61 60 59 59 59 57 56 55 55 56 58
60 60 59 59 58 58 58 58 59 58 59 59 60 61 62 63 62 61 61 61 60 61 61 60 58 59 58 57 54 53 54 54
60 60 60 59 59 57 56 56 55 56 56 58 58 60 60 61 61 62 61 61 61 61 61 60 60 58 59 59 58 55 53 52
57 60 61 61 60 57 56 55 56 55 56 57 59 60 60 60 61 61 60 61 60 60 61 61 60 59 59 58 59 58 56 55
31 56 60 61 61 60 57 56 56 56 57 58 59 60 61 61 61 61 61 61 60 61 61 61 60 60 60 59 58 57 57 57
47 42 58 61 61 61 59 58 57 56 57 59 59 60 60 60 61 61 61 61 61 61 61 60 60 60 59 59 59 58 58 56
41 50 54 59 61 62 61 59 59 57 58 59 60 60 61 62 61 61 62 62 61 61 61 60 60 60 59 59 59 59 58 58

GFSFLT2_sfc_30mbdewp_252.txt.gz
Dewpoint
63 64 67 70 70 69 69 70 70 70 70 70 70 69 69 69 69 69 69 68 68 68 67 67 66 66 63 61 60 60 60 58
65 64 64 65 67 69 69 70 70 70 70 70 69 69 69 69 69 69 68 68 67 67 66 66 65 64 62 60 60 59 59 59
66 64 64 64 64 67 69 69 70 69 69 69 68 62 66 67 65 68 68 66 66 65 65 65 64 62 61 60 60 58 58 58
65 66 64 64 62 63 64 65 66 66 65 65 61 59 61 61 63 67 67 65 65 64 64 63 62 58 58 60 57 58 59 57
64 66 65 64 61 62 61 61 61 63 64 64 60 61 61 60 62 62 61 63 60 61 61 59 58 56 55 56 56 59 57 58
63 64 65 64 61 61 60 59 59 60 62 64 61 62 61 59 57 57 57 56 54 55 55 56 56 58 58 58 60 58 57 57
61 63 65 64 63 61 61 60 60 59 61 64 62 61 60 59 58 57 57 56 55 55 54 55 57 57 58 59 59 59 59 58
61 63 65 64 64 63 61 61 60 60 59 61 64 61 60 60 59 58 57 57 56 56 55 55 56 55 56 58 57 56 56 57
59 62 64 65 64 64 63 62 62 61 59 60 64 63 61 61 58 58 56 56 58 57 56 57 56 56 57 56 57 56 55 55
56 60 62 64 64 63 63 62 62 61 60 59 62 63 61 62 58 58 56 56 58 56 56 55 55 55 55 55 53 54 54 55
54 58 60 62 64 63 63 63 63 61 61 59 60 62 61 61 58 55 57 57 56 54 54 54 52 53 52 53 53 53 53 53
55 56 59 60 62 63 62 62 63 62 61 60 60 61 61 61 58 56 57 56 55 54 54 54 53 50 49 47 49 50 50 50
49 56 58 59 59 59 59 58 60 62 61 60 61 61 60 61 58 57 58 56 54 54 55 55 53 54 52 51 51 53 55 55
46 49 55 59 59 58 56 55 57 59 60 60 61 61 61 61 60 56 56 56 56 56 56 54 53 53 52 49 46 47 50 55
44 46 49 54 60 60 59 57 56 56 58 58 60 61 61 62 60 60 58 58 55 59 58 57 51 52 56 51 47 45 43 50
41 44 47 51 56 60 59 58 56 56 56 57 58 60 61 62 63 61 62 59 58 58 59 58 57 51 55 59 58 52 48 46
37 39 43 47 53 58 61 60 59 58 57 56 58 60 61 61 62 62 63 62 61 61 59 60 58 57 53 55 57 56 57 55
34 35 36 41 47 52 59 61 60 59 58 56 56 57 58 60 61 63 64 62 62 61 61 60 60 58 57 55 53 52 53 53
33 33 31 36 42 45 49 56 62 61 60 59 57 56 57 58 60 62 62 63 62 61 61 61 61 60 60 56 55 54 52 51
31 32 34 35 35 41 44 47 50 59 62 61 60 58 58 59 60 61 62 61 61 62 62 61 61 61 61 60 57 55 55 56

GFSFLT2_sfc_30mbdewp_258.txt.gz
Dewpoint
67 69 71 71 71 70 70 70 70 70 70 70 70 70 70 69 70 70 69 69 69 67 66 65 65 64 63 61 60 61 61 61
65 67 69 70 70 70 69 70 70 69 69 69 69 69 69 69 69 69 69 69 68 66 66 66 66 65 63 61 60 60 59 59
65 65 66 68 69 69 69 69 69 69 69 69 68 66 68 68 67 68 68 68 67 67 66 67 66 65 64 62 60 59 59 59
65 65 65 66 63 68 68 68 68 68 67 68 67 63 64 62 64 67 67 67 66 66 66 66 65 64 63 62 60 58 59 59
65 66 65 65 62 67 65 66 66 66 66 66 65 61 63 61 66 66 67 66 65 65 65 65 63 62 61 61 59 58 58 58
63 64 66 66 63 65 63 63 64 65 65 66 64 63 63 60 63 65 64 62 62 61 62 63 62 62 61 61 60 57 58 59
61 63 66 66 66 63 63 62 63 62 63 65 65 63 62 61 60 63 62 60 60 60 60 61 62 61 61 59 59 60 60 61
60 60 65 66 66 65 64 63 62 61 61 63 65 63 63 62 61 61 59 58 59 57 58 58 60 60 59 59 60 60 59 60
60 60 64 65 66 65 65 62 62 61 60 62 65 64 64 63 62 60 60 59 58 58 56 59 57 58 57 59 59 59 59 58
54 57 61 65 65 66 65 64 63 61 62 60 63 65 63 64 62 61 60 59 60 59 59 57 58 57 58 58 57 59 59 58
52 55 55 57 64 64 65 65 64 62 62 62 62 62 64 64 63 61 62 59 59 59 58 59 57 57 56 57 58 57 57 57
50 52 54 53 54 58 64 63 63 63 62 61 61 63 62 63 63 64 62 61 59 58 58 58 58 56 55 53 55 56 56 56
44 48 51 52 52 54 58 57 61 61 62 61 62 62 63 63 62 63 64 61 60 59 58 58 57 57 55 55 55 56 56 55
40 42 44 46 50 51 53 55 57 61 61 62 61 61 63 64 63 62 62 62 61 60 59 58 58 57 57 54 52 53 54 54
41 41 41 43 43 44 49 51 52 53 53 55 60 62 61 62 64 64 63 62 61 60 60 59 58 57 57 56 53 51 50 52
39 41 42 42 44 42 43 44 44 47 49 50 51 53 60 61 62 64 64 63 62 61 60 60 59 58 58 57 56 54 54 54
40 37 38 39 41 43 42 42 42 42 43 45 46 47 51 51 54 61 64 64 64 62 61 61 60 59 57 55 56 56 55 55
39 38 38 38 38 40 41 40 42 42 43 42 44 43 43 47 48 51 53 63 64 64 62 62 61 60 59 58 54 54 55 56
35 34 35 38 39 38 38 40 39 41 42 42 42 43 43 42 44 48 50 53 58 64 64 63 62 60 61 59 59 55 53 57
35 34 33 35 37 38 39 39 39 39 41 42 41 43 43 44 43 45 46 51 54 56 64 64 64 63 61 61 59 58 56 53

GFSFLT2_sfc_30mbdewp_261.txt.gz
Dewpoint
70 70 71 71 71 70 70 70 70 70 70 70 70 70 69 70 70 70 69 69 68 66 65 64 64 63 63 62 61 61 61 60
69 70 71 70 70 70 69 69 69 69 69 69 69 69 69 69 69 69 69 69 68 66 65 65 65 64 63 62 61 60 58 59
67 69 70 70 69 70 69 69 69 69 69 69 68 68 69 69 68 69 68 68 68 66 65 66 66 65 64 63 61 60 58 58
65 66 67 69 68 69 68 69 69 69 68 68 67 66 66 67 67 67 68 67 67 66 65 66 66 65 64 64 62 59 57 58
64 64 65 66 65 67 68 68 68 68 67 67 66 64 64 64 65 66 67 67 66 66 66 65 65 64 63 62 61 59 57 58
64 64 64 65 65 66 66 66 66 66 66 66 65 63 62 62 64 65 66 65 64 63 64 64 64 63 63 62 61 59 58 58
64 65 64 64 65 65 64 64 65 65 65 66 65 63 62 62 63 64 65 64 63 61 62 62 62 62 62 62 61 60 60 61
62 65 65 65 64 65 64 62 64 63 64 65 66 64 63 63 61 63 64 62 61 59 60 61 61 62 61 61 60 60 60 59
54 56 66 66 64 63 66 65 63 62 62 64 66 65 63 63 63 61 61 61 60 59 57 59 59 60 60 60 59 58 58 58
53 53 53 56 61 65 64 64 64 63 61 61 64 65 64 62 63 63 61 61 59 59 58 56 57 58 57 58 58 59 58 58
46 49 52 53 55 58 60 64 65 64 61 62 60 65 64 63 62 62 63 62 60 60 60 58 56 56 57 57 57 58 58 58
41 42 45 48 50 53 58 57 59 61 63 63 63 63 63 64 63 62 63 62 61 60 58 59 58 57 57 56 56 56 57 58
41 42 42 42 44 48 53 54 55 55 53 55 54 55 63 62 63 63 63 63 62 61 59 57 57 59 56 56 56 56 56 56
41 41 42 42 42 44 47 49 50 48 48 50 51 53 53 57 62 62 62 62 62 62 61 58 58 58 56 56 53 53 53 55
39 39 39 42 42 41 42 43 42 42 43 45 47 49 51 49 50 52 58 63 61 61 61 60 59 58 57 55 54 52 52 52
38 38 38 39 42 41 40 41 41 42 43 43 44 46 48 48 47 50 52 53 56 62 62 61 60 58 58 58 55 54 51 50
36 39 39 39 39 40 40 38 40 41 42 41 42 44 45 46 48 49 49 51 53 54 58 62 61 59 58 57 58 57 55 54
33 36 36 39 39 38 39 38 38 39 40 40 40 40 41 43 45 47 48 49 51 52 55 56 62 61 60 59 57 55 54 55
34 34 35 35 39 39 39 39 38 39 39 39 39 39 39 40 41 44 45 47 48 51 53 52 54 57 62 60 60 59 57 54
33 33 34 34 36 37 39 39 39 39 40 40 39 39 39 39 40 41 42 44 46 48 51 51 51 50 51 58 61 60 60 58